Time,TemperatureF,DewpointF,PressureIn,WindDirection,WindDirectionDegrees,WindSpeedMPH,WindSpeedGustMPH,Humidity,HourlyPrecipIn,Conditions,Clouds,dailyrainin,SoftwareType,DateUTC
2013-08-15 00:03:00,53.3,46.0,30.20,WNW,293,0.0,0.0,76,0.00,,,0.00,WUHU21623XXSP,2013-08-15 04:03:00,
2013-08-15 01:03:00,51.9,45.0,30.19,WNW,293,0.0,0.0,77,0.00,,,0.00,WUHU21623XXSP,2013-08-15 05:03:00,
2013-08-15 02:03:00,50.4,44.2,30.18,WNW,293,0.0,0.0,79,0.00,,,0.00,WUHU21623XXSP,2013-08-15 06:03:00,
2013-08-15 03:03:00,48.8,43.2,30.19,WNW,293,0.0,0.0,81,0.00,,,0.00,WUHU21623XXSP,2013-08-15 07:03:00,
2013-08-15 04:03:00,48.3,43.1,30.19,WNW,293,0.0,0.0,82,0.00,,,0.00,WUHU21623XXSP,2013-08-15 08:03:00,
2013-08-15 05:03:00,47.9,42.7,30.19,WNW,293,0.0,0.0,82,0.00,,,0.00,WUHU21623XXSP,2013-08-15 09:03:00,
2013-08-15 06:03:00,47.0,42.1,30.19,WNW,293,0.0,0.0,83,0.00,,,0.00,WUHU21623XXSP,2013-08-15 10:03:00,
2013-08-15 07:03:00,46.5,41.9,30.20,WNW,293,0.0,0.0,84,0.00,,,0.00,WUHU21623XXSP,2013-08-15 11:03:00,
2013-08-15 08:03:00,47.6,43.0,30.20,WNW,293,0.0,0.0,84,0.00,,,0.00,WUHU21623XXSP,2013-08-15 12:03:00,
2013-08-15 09:03:00,51.2,47.1,30.21,WNW,293,0.0,0.0,86,0.00,,,0.00,WUHU21623XXSP,2013-08-15 13:03:00,
2013-08-15 10:03:00,56.4,52.2,30.21,WSW,248,0.0,0.0,86,0.00,,,0.00,WUHU21623XXSP,2013-08-15 14:03:00,
2013-08-15 11:03:00,61.2,54.3,30.22,West,270,0.0,0.0,78,0.00,,,0.00,WUHU21623XXSP,2013-08-15 15:03:00,
2013-08-15 12:03:00,65.2,54.1,30.21,WSW,248,0.0,0.0,67,0.00,,,0.00,WUHU21623XXSP,2013-08-15 16:03:00,
2013-08-15 13:03:00,67.7,53.9,30.19,NW,315,0.0,0.0,61,0.00,,,0.00,WUHU21623XXSP,2013-08-15 17:03:00,
2013-08-15 14:03:00,69.9,53.6,30.18,WSW,248,0.0,0.0,56,0.00,,,0.00,WUHU21623XXSP,2013-08-15 18:03:00,
2013-08-15 15:03:00,71.0,53.6,30.16,South,180,0.0,0.0,54,0.00,,,0.00,WUHU21623XXSP,2013-08-15 19:03:00,
2013-08-15 16:03:00,71.1,52.7,30.14,SE,135,0.0,0.0,52,0.00,,,0.00,WUHU21623XXSP,2013-08-15 20:03:00,
2013-08-15 16:43:00,70.4,53.1,30.14,West,270,0.0,0.0,54,0.00,,,0.00,WUHU21623XXSP,2013-08-15 20:43:00,
2013-08-15 16:44:00,70.4,53.1,30.14,West,270,0.0,0.0,54,0.00,,,0.00,WUHU21623XXSP,2013-08-15 20:44:00,
2013-08-15 16:45:00,70.5,53.2,30.14,West,270,0.0,0.0,54,0.00,,,0.00,WUHU21623XXSP,2013-08-15 20:45:00,
2013-08-15 16:50:00,70.8,53.4,30.15,West,270,0.0,0.0,54,0.00,,,0.00,WUHU21623XXSP,2013-08-15 20:50:00,
2013-08-15 16:54:00,71.0,54.2,30.15,West,270,0.0,0.0,55,0.00,,,0.00,WUHU21623XXSP,2013-08-15 20:54:00,
2013-08-15 16:55:00,71.1,54.3,30.14,West,270,0.0,0.0,55,0.00,,,0.00,WUHU21623XXSP,2013-08-15 20:55:00,
2013-08-15 16:57:00,71.2,54.4,30.15,West,270,0.0,0.0,55,0.00,,,0.00,WUHU21623XXSP,2013-08-15 20:57:00,
2013-08-15 16:59:00,71.3,54.5,30.15,West,270,0.0,0.0,55,0.00,,,0.00,WUHU21623XXSP,2013-08-15 20:59:00,
2013-08-15 17:03:00,71.4,54.5,30.15,West,270,0.0,0.0,55,0.00,,,0.00,WUHU21623XXSP,2013-08-15 21:03:00,
2013-08-15 17:07:00,71.4,53.8,30.14,West,270,0.0,0.0,54,0.00,,,0.00,WUHU21623XXSP,2013-08-15 21:07:00,
2013-08-15 17:11:00,71.4,53.8,30.14,West,270,0.0,0.0,54,0.00,,,0.00,WUHU21623XXSP,2013-08-15 21:11:00,
2013-08-15 17:13:00,71.4,53.8,30.14,SE,135,0.0,0.0,54,0.00,,,0.00,WUHU21623XXSP,2013-08-15 21:13:00,
2013-08-15 17:20:00,71.4,53.8,30.14,SE,135,0.0,0.0,54,0.00,,,0.00,WUHU21623XXSP,2013-08-15 21:20:00,
2013-08-15 17:22:00,71.2,53.7,30.14,SE,135,0.0,0.0,54,0.00,,,0.00,WUHU21623XXSP,2013-08-15 21:22:00,
2013-08-15 17:24:00,71.2,53.7,30.14,SE,135,0.0,0.0,54,0.00,,,0.00,WUHU21623XXSP,2013-08-15 21:24:00,
2013-08-15 17:26:00,71.2,53.7,30.14,SE,135,0.0,0.0,54,0.00,,,0.00,WUHU21623XXSP,2013-08-15 21:26:00,
2013-08-15 17:30:00,71.1,53.5,30.14,SE,135,0.0,0.0,54,0.00,,,0.00,WUHU21623XXSP,2013-08-15 21:30:00,
2013-08-15 17:33:00,70.9,53.9,30.14,SE,135,0.0,0.0,55,0.00,,,0.00,WUHU21623XXSP,2013-08-15 21:33:00,
2013-08-15 17:35:00,71.1,54.0,30.14,SE,135,0.0,0.0,55,0.00,,,0.00,WUHU21623XXSP,2013-08-15 21:35:00,
2013-08-15 17:37:00,71.1,54.0,30.14,SE,135,0.0,0.0,55,0.00,,,0.00,WUHU21623XXSP,2013-08-15 21:37:00,
2013-08-15 17:40:00,71.1,54.0,30.14,SE,135,0.0,0.0,55,0.00,,,0.00,WUHU21623XXSP,2013-08-15 21:40:00,
2013-08-15 17:45:00,70.9,53.9,30.14,East,90,0.0,0.0,55,0.00,,,0.00,WUHU21623XXSP,2013-08-15 21:45:00,
2013-08-15 17:50:00,70.9,53.9,30.14,East,90,0.0,0.0,55,0.00,,,0.00,WUHU21623XXSP,2013-08-15 21:50:00,
2013-08-15 17:55:00,70.9,53.9,30.14,East,90,0.0,0.0,55,0.00,,,0.00,WUHU21623XXSP,2013-08-15 21:55:00,
2013-08-15 18:00:00,70.7,53.7,30.14,East,90,0.0,0.0,55,0.00,,,0.00,WUHU21623XXSP,2013-08-15 22:00:00,
2013-08-15 18:05:00,70.7,53.7,30.14,East,90,0.0,0.0,55,0.00,,,0.00,WUHU21623XXSP,2013-08-15 22:05:00,
2013-08-15 18:10:00,70.9,54.4,30.14,East,90,0.0,0.0,56,0.00,,,0.00,WUHU21623XXSP,2013-08-15 22:10:00,
2013-08-15 18:15:00,71.1,54.5,30.14,East,90,0.0,0.0,56,0.00,,,0.00,WUHU21623XXSP,2013-08-15 22:15:00,
2013-08-15 18:20:00,71.2,54.7,30.14,East,90,0.0,0.0,56,0.00,,,0.00,WUHU21623XXSP,2013-08-15 22:20:00,
2013-08-15 18:25:00,71.2,54.7,30.14,East,90,0.0,0.0,56,0.00,,,0.00,WUHU21623XXSP,2013-08-15 22:25:00,
2013-08-15 18:30:00,71.2,54.7,30.14,East,90,0.0,0.0,56,0.00,,,0.00,WUHU21623XXSP,2013-08-15 22:30:00,
2013-08-15 18:35:00,70.7,54.2,30.14,East,90,0.0,0.0,56,0.00,,,0.00,WUHU21623XXSP,2013-08-15 22:35:00,
2013-08-15 18:40:00,70.5,54.5,30.14,East,90,0.0,0.0,57,0.00,,,0.00,WUHU21623XXSP,2013-08-15 22:40:00,
2013-08-15 18:45:00,70.5,54.5,30.14,East,90,0.0,0.0,57,0.00,,,0.00,WUHU21623XXSP,2013-08-15 22:45:00,
2013-08-15 18:50:00,70.2,54.2,30.14,East,90,0.0,0.0,57,0.00,,,0.00,WUHU21623XXSP,2013-08-15 22:50:00,
2013-08-15 18:55:00,70.0,54.0,30.14,East,90,0.0,0.0,57,0.00,,,0.00,WUHU21623XXSP,2013-08-15 22:55:00,
2013-08-15 19:00:00,70.0,54.0,30.14,East,90,0.0,0.0,57,0.00,,,0.00,WUHU21623XXSP,2013-08-15 23:00:00,
2013-08-15 19:05:00,69.6,53.7,30.14,East,90,0.0,0.0,57,0.00,,,0.00,WUHU21623XXSP,2013-08-15 23:05:00,
2013-08-15 19:10:00,69.6,53.7,30.14,East,90,0.0,0.0,57,0.00,,,0.00,WUHU21623XXSP,2013-08-15 23:10:00,
2013-08-15 19:15:00,69.6,53.7,30.14,East,90,0.0,0.0,57,0.00,,,0.00,WUHU21623XXSP,2013-08-15 23:15:00,
2013-08-15 19:20:00,69.4,54.0,30.13,East,90,0.0,0.0,58,0.00,,,0.00,WUHU21623XXSP,2013-08-15 23:20:00,
2013-08-15 19:25:00,69.4,54.0,30.13,East,90,0.0,0.0,58,0.00,,,0.00,WUHU21623XXSP,2013-08-15 23:25:00,
2013-08-15 19:31:00,69.4,54.5,30.13,East,90,0.0,0.0,59,0.00,,,0.00,WUHU21623XXSP,2013-08-15 23:31:00,
2013-08-15 19:36:00,69.4,54.5,30.13,East,90,0.0,0.0,59,0.00,,,0.00,WUHU21623XXSP,2013-08-15 23:36:00,
2013-08-15 19:41:00,69.3,54.9,30.14,East,90,0.0,0.0,60,0.00,,,0.00,WUHU21623XXSP,2013-08-15 23:41:00,
2013-08-15 19:46:00,69.1,54.7,30.14,East,90,0.0,0.0,60,0.00,,,0.00,WUHU21623XXSP,2013-08-15 23:46:00,
2013-08-15 19:51:00,69.1,54.7,30.14,East,90,0.0,0.0,60,0.00,,,0.00,WUHU21623XXSP,2013-08-15 23:51:00,
2013-08-15 19:56:00,68.9,54.9,30.14,East,90,0.0,0.0,61,0.00,,,0.00,WUHU21623XXSP,2013-08-15 23:56:00,
2013-08-15 20:01:00,68.7,54.7,30.14,East,90,0.0,0.0,61,0.00,,,0.00,WUHU21623XXSP,2013-08-16 00:01:00,
2013-08-15 20:06:00,68.5,54.6,30.14,East,90,0.0,0.0,61,0.00,,,0.00,WUHU21623XXSP,2013-08-16 00:06:00,
2013-08-15 20:11:00,68.4,54.8,30.14,East,90,0.0,0.0,62,0.00,,,0.00,WUHU21623XXSP,2013-08-16 00:11:00,
2013-08-15 20:16:00,68.2,54.6,30.14,East,90,0.0,0.0,62,0.00,,,0.00,WUHU21623XXSP,2013-08-16 00:16:00,
2013-08-15 20:21:00,68.0,54.5,30.14,East,90,0.0,0.0,62,0.00,,,0.00,WUHU21623XXSP,2013-08-16 00:21:00,
2013-08-15 20:26:00,67.8,54.7,30.14,East,90,0.0,0.0,63,0.00,,,0.00,WUHU21623XXSP,2013-08-16 00:26:00,
2013-08-15 20:31:00,67.6,54.6,30.14,East,90,0.0,0.0,63,0.00,,,0.00,WUHU21623XXSP,2013-08-16 00:31:00,
2013-08-15 20:36:00,67.3,54.2,30.14,East,90,0.0,0.0,63,0.00,,,0.00,WUHU21623XXSP,2013-08-16 00:36:00,
2013-08-15 20:41:00,66.7,53.7,30.14,East,90,0.0,0.0,63,0.00,,,0.00,WUHU21623XXSP,2013-08-16 00:41:00,
2013-08-15 20:47:00,66.6,54.0,30.14,East,90,0.0,0.0,64,0.00,,,0.00,WUHU21623XXSP,2013-08-16 00:47:00,
2013-08-15 20:52:00,66.0,53.5,30.14,East,90,0.0,0.0,64,0.00,,,0.00,WUHU21623XXSP,2013-08-16 00:52:00,
2013-08-15 20:57:00,65.8,53.7,30.14,East,90,0.0,0.0,65,0.00,,,0.00,WUHU21623XXSP,2013-08-16 00:57:00,
2013-08-15 21:02:00,65.3,53.2,30.14,East,90,0.0,0.0,65,0.00,,,0.00,WUHU21623XXSP,2013-08-16 01:02:00,
2013-08-15 21:07:00,65.1,53.4,30.15,East,90,0.0,0.0,66,0.00,,,0.00,WUHU21623XXSP,2013-08-16 01:07:00,
2013-08-15 21:12:00,64.8,53.1,30.15,East,90,0.0,0.0,66,0.00,,,0.00,WUHU21623XXSP,2013-08-16 01:12:00,
2013-08-15 21:17:00,64.6,52.9,30.15,East,90,0.0,0.0,66,0.00,,,0.00,WUHU21623XXSP,2013-08-16 01:17:00,
2013-08-15 21:22:00,64.2,53.0,30.15,East,90,0.0,0.0,67,0.00,,,0.00,WUHU21623XXSP,2013-08-16 01:22:00,
2013-08-15 21:27:00,64.0,52.8,30.15,East,90,0.0,0.0,67,0.00,,,0.00,WUHU21623XXSP,2013-08-16 01:27:00,
2013-08-15 21:33:00,63.7,52.5,30.15,East,90,0.0,0.0,67,0.00,,,0.00,WUHU21623XXSP,2013-08-16 01:33:00,
2013-08-15 21:35:00,63.3,52.1,30.15,East,90,0.0,0.0,67,0.00,,,0.00,WUHU21623XXSP,2013-08-16 01:35:00,
2013-08-15 21:38:00,63.3,52.1,30.15,East,90,0.0,0.0,67,0.00,,,0.00,WUHU21623XXSP,2013-08-16 01:38:00,
2013-08-15 21:43:00,63.1,52.4,30.15,East,90,0.0,0.0,68,0.00,,,0.00,WUHU21623XXSP,2013-08-16 01:43:00,
2013-08-15 21:48:00,62.8,52.0,30.15,East,90,0.0,0.0,68,0.00,,,0.00,WUHU21623XXSP,2013-08-16 01:48:00,
2013-08-15 21:53:00,62.6,51.9,30.15,East,90,0.0,0.0,68,0.00,,,0.00,WUHU21623XXSP,2013-08-16 01:53:00,
2013-08-15 21:58:00,62.4,52.1,30.16,East,90,0.0,0.0,69,0.00,,,0.00,WUHU21623XXSP,2013-08-16 01:58:00,
2013-08-15 22:03:00,62.4,52.1,30.16,East,90,0.0,0.0,69,0.00,,,0.00,WUHU21623XXSP,2013-08-16 02:03:00,
2013-08-15 22:08:00,62.2,52.0,30.16,East,90,0.0,0.0,69,0.00,,,0.00,WUHU21623XXSP,2013-08-16 02:08:00,
2013-08-15 22:11:00,62.1,52.2,30.16,East,90,0.0,0.0,70,0.00,,,0.00,WUHU21623XXSP,2013-08-16 02:11:00,
2013-08-15 22:21:00,61.5,51.7,30.16,East,90,0.0,0.0,70,0.00,,,0.00,WUHU21623XXSP,2013-08-16 02:21:00,
2013-08-15 22:23:00,61.5,51.7,30.16,East,90,0.0,0.0,70,0.00,,,0.00,WUHU21623XXSP,2013-08-16 02:23:00,
2013-08-15 22:25:00,61.5,51.7,30.16,East,90,0.0,0.0,70,0.00,,,0.00,WUHU21623XXSP,2013-08-16 02:25:00,
2013-08-15 22:30:00,61.5,52.1,30.16,East,90,0.0,0.0,71,0.00,,,0.00,WUHU21623XXSP,2013-08-16 02:30:00,
2013-08-15 22:35:00,61.0,51.6,30.16,East,90,0.0,0.0,71,0.00,,,0.00,WUHU21623XXSP,2013-08-16 02:35:00,
2013-08-15 22:46:00,60.6,51.6,30.16,East,90,0.0,0.0,72,0.00,,,0.00,WUHU21623XXSP,2013-08-16 02:46:00,
2013-08-15 22:47:00,60.6,51.6,30.16,East,90,0.0,0.0,72,0.00,,,0.00,WUHU21623XXSP,2013-08-16 02:47:00,
2013-08-15 22:49:00,60.6,51.6,30.16,East,90,0.0,0.0,72,0.00,,,0.00,WUHU21623XXSP,2013-08-16 02:49:00,
2013-08-15 22:50:00,60.6,51.6,30.16,East,90,0.0,0.0,72,0.00,,,0.00,WUHU21623XXSP,2013-08-16 02:50:00,
2013-08-15 22:52:00,60.6,51.6,30.16,East,90,0.0,0.0,72,0.00,,,0.00,WUHU21623XXSP,2013-08-16 02:52:00,
2013-08-15 22:57:00,60.4,51.4,30.16,East,90,0.0,0.0,72,0.00,,,0.00,WUHU21623XXSP,2013-08-16 02:57:00,
2013-08-15 23:02:00,60.1,51.1,30.16,East,90,0.0,0.0,72,0.00,,,0.00,WUHU21623XXSP,2013-08-16 03:02:00,
2013-08-15 23:07:00,60.1,51.4,30.16,East,90,0.0,0.0,73,0.00,,,0.00,WUHU21623XXSP,2013-08-16 03:07:00,
2013-08-15 23:12:00,59.9,51.3,30.16,East,90,0.0,0.0,73,0.00,,,0.00,WUHU21623XXSP,2013-08-16 03:12:00,
2013-08-15 23:17:00,59.5,50.9,30.16,East,90,0.0,0.0,73,0.00,,,0.00,WUHU21623XXSP,2013-08-16 03:17:00,
2013-08-15 23:22:00,59.5,50.9,30.16,East,90,0.0,0.0,73,0.00,,,0.00,WUHU21623XXSP,2013-08-16 03:22:00,
2013-08-15 23:27:00,59.4,51.1,30.16,East,90,0.0,0.0,74,0.00,,,0.00,WUHU21623XXSP,2013-08-16 03:27:00,
2013-08-15 23:32:00,58.8,50.5,30.16,East,90,0.0,0.0,74,0.00,,,0.00,WUHU21623XXSP,2013-08-16 03:32:00,
2013-08-15 23:37:00,58.8,50.5,30.16,East,90,0.0,0.0,74,0.00,,,0.00,WUHU21623XXSP,2013-08-16 03:37:00,
2013-08-15 23:42:00,58.8,50.5,30.16,East,90,0.0,0.0,74,0.00,,,0.00,WUHU21623XXSP,2013-08-16 03:42:00,
2013-08-15 23:47:00,58.8,50.9,30.16,East,90,0.0,0.0,75,0.00,,,0.00,WUHU21623XXSP,2013-08-16 03:47:00,
2013-08-15 23:52:00,58.8,50.9,30.16,East,90,0.0,0.0,75,0.00,,,0.00,WUHU21623XXSP,2013-08-16 03:52:00,
2013-08-15 23:57:00,58.3,50.4,30.16,East,90,0.0,0.0,75,0.00,,,0.00,WUHU21623XXSP,2013-08-16 03:57:00,